Weather History for Hot Springs, VA

Change the Weather History Date:

Monday, January 6, 2014

  Actual Average Record
Temperature  
Mean Temperature 16 °F -  
Max Temperature 44 °F 34 °F 60 °F (1998)
Min Temperature -11 °F 21 °F -11 °F (2014)
Degree Days  
Heating Degree Days 48    
Moisture  
Dew Point 11 °F    
Average Humidity 83    
Maximum Humidity 100    
Minimum Humidity 55    
Precipitation  
Precipitation 0.09 in - - ()
Sea Level Pressure  
Sea Level Pressure 29.65 in    
Wind  
Wind Speed 22 mph (West)    
Max Wind Speed 36 mph    
Max Gust Speed 54 mph    
Visibility 8 miles    
Events Rain , Snow    
Averages and records for this station are not official NWS values.
T = Trace of Precipitation, MM = Missing Value Source: NWS Daily Summary

Daily Weather History Graph

Daily Weather History Graph

Search for Another Location

Airport:

Trip Planner

Search our weather history database for the weather conditions in past years. The results will help you decide how hot, cold, wet, or windy it might be!

Date:

Astronomy

Jan. 06, 2014 Rise Set
Actual Time 7:35 AM EST 5:15 PM EST
Civil Twilight 7:06 AM EST 5:44 PM EST
Nautical Twilight 6:33 AM EST 6:17 PM EST
Astronomical Twilight 6:01 AM EST 6:48 PM EST
Moon 10:56 AM EST (1/6) 11:39 PM EST (1/6)
Length of Visible Light 10h 37m
Length of Day
9h 39m
Waxing Crescent, 34% of the Moon is Illuminated
Jan 6
Waxing Crescent
Jan 7
First Quarter
Jan 15
Full
Jan 24
Last Quarter
Jan 30
New

Hourly Weather History & Observations

Time (EST) Temp. Windchill Dew Point Humidity Pressure Visibility Wind Dir Wind Speed Gust Speed Precip Events Conditions
12:15 AM 39.2 °F 30.2 °F 39.2 °F 100% 29.65 in 0.2 mi South 17.3 mph 27.6 mph N/A   Unknown
12:35 AM 39.2 °F 30.8 °F 39.2 °F 100% 29.63 in 0.2 mi South 15.0 mph 23.0 mph N/A   Unknown
12:57 AM 39.2 °F 30.8 °F 39.2 °F 100% 29.62 in 0.2 mi South 15.0 mph 20.7 mph N/A   Unknown
1:20 AM 39.2 °F 30.2 °F 39.2 °F 100% 29.60 in 0.2 mi SSW 17.3 mph 29.9 mph N/A   Unknown
1:37 AM 39.2 °F 29.8 °F 39.2 °F 100% 29.59 in 0.2 mi SSW 18.4 mph 26.5 mph N/A   Unknown
1:58 AM 41.0 °F 31.9 °F 41.0 °F 100% 29.59 in 0.2 mi SSW 19.6 mph 31.1 mph N/A   Unknown
2:18 AM 41.0 °F 32.5 °F 41.0 °F 100% 29.58 in 0.2 mi SSW 17.3 mph 32.2 mph N/A   Unknown
2:38 AM 41.0 °F 31.1 °F 41.0 °F 100% 29.56 in 0.2 mi SSW 23.0 mph 31.1 mph N/A   Unknown
2:58 AM 42.8 °F 32.7 °F 42.8 °F 100% 29.55 in 7.0 mi SSW 27.6 mph 38.0 mph N/A   Overcast
3:18 AM 44.6 °F 36.6 °F 44.6 °F 100% 29.55 in 7.0 mi SSW 19.6 mph 34.5 mph N/A Rain Light Rain
3:35 AM 33.8 °F - 33.8 °F 100% 29.57 in 1.0 mi North - - 0.02 in Snow Light Snow
3:38 AM 39.2 °F 26.5 °F 39.2 °F 100% 29.56 in 2.0 mi West 35.7 mph 54.1 mph 0.06 in Rain Rain
3:58 AM 33.8 °F 19.9 °F 33.8 °F 100% 29.58 in 1.0 mi West 31.1 mph 49.5 mph 0.02 in Rain Light Rain
4:35 AM 33.8 °F 20.3 °F 33.8 °F 100% 29.57 in 10.0 mi West 28.8 mph 35.7 mph 0.03 in   Overcast
4:55 AM 32.0 °F 19.2 °F 32.0 °F 100% 29.57 in 1.2 mi West 23.0 mph 34.5 mph N/A   Overcast
5:15 AM 32.0 °F 17.6 °F 32.0 °F 100% 29.57 in 10.0 mi West 29.9 mph 44.9 mph N/A   Overcast
5:35 AM 30.2 °F 15.4 °F 30.2 °F 100% 29.56 in 10.0 mi West 28.8 mph 39.1 mph N/A   Overcast
5:55 AM 30.2 °F 16.8 °F 30.2 °F 100% 29.57 in 10.0 mi West 23.0 mph 31.1 mph N/A   Overcast
6:15 AM 26.6 °F 11.1 °F 26.6 °F 100% 29.56 in 10.0 mi WNW 26.5 mph 34.5 mph N/A   Overcast
6:35 AM 26.6 °F 11.1 °F 24.8 °F 93% 29.57 in 10.0 mi West 26.5 mph 33.4 mph N/A   Overcast
6:55 AM 24.8 °F 8.4 °F 24.8 °F 100% 29.58 in 10.0 mi West 27.6 mph 34.5 mph N/A   Overcast
7:15 AM 24.8 °F 8.1 °F 21.2 °F 86% 29.59 in 10.0 mi WNW 28.8 mph 40.3 mph N/A   Overcast
7:35 AM 24.8 °F 10.7 °F 21.2 °F 86% 29.60 in 10.0 mi West 19.6 mph 35.7 mph N/A   Overcast
7:55 AM 23.0 °F 7.2 °F 21.2 °F 93% 29.61 in 10.0 mi West 23.0 mph 28.8 mph N/A   Overcast
8:15 AM 21.2 °F 5.2 °F 19.4 °F 93% 29.61 in 10.0 mi WNW 21.9 mph 36.8 mph N/A   Overcast
8:35 AM 21.2 °F 4.9 °F 19.4 °F 93% 29.63 in 10.0 mi West 23.0 mph 29.9 mph N/A Snow Light Snow
8:55 AM 21.2 °F 3.9 °F 17.6 °F 86% 29.64 in 10.0 mi West 26.5 mph 35.7 mph N/A Snow Light Snow
9:15 AM 19.4 °F 2.1 °F 15.8 °F 86% 29.65 in 10.0 mi West 24.2 mph 34.5 mph N/A Snow Light Snow
9:35 AM 19.4 °F 5.5 °F 15.8 °F 86% 29.65 in 10.0 mi West 15.0 mph 35.7 mph N/A Snow Light Snow
9:55 AM 19.4 °F 2.5 °F 15.8 °F 86% 29.65 in 10.0 mi West 23.0 mph 32.2 mph N/A   Overcast
10:15 AM 17.6 °F 0.9 °F 15.8 °F 93% 29.65 in 10.0 mi West 20.7 mph 31.1 mph N/A   Overcast
10:35 AM 17.6 °F 0.5 °F 15.8 °F 93% 29.65 in 10.0 mi West 21.9 mph 29.9 mph N/A   Mostly Cloudy
10:55 AM 17.6 °F 0.1 °F 15.8 °F 93% 29.64 in 10.0 mi WNW 23.0 mph 32.2 mph N/A Snow Light Snow
11:15 AM 19.4 °F 3.2 °F 15.8 °F 86% 29.64 in 5.0 mi West 20.7 mph 35.7 mph N/A Snow Light Snow
11:35 AM 17.6 °F 0.5 °F 12.2 °F 79% 29.63 in 10.0 mi WNW 21.9 mph 32.2 mph N/A   Overcast
11:55 AM 17.6 °F -0.6 °F 12.2 °F 79% 29.63 in 10.0 mi West 25.3 mph 33.4 mph N/A   Overcast
12:15 PM 17.6 °F -0.3 °F 12.2 °F 79% 29.63 in 7.0 mi West 24.2 mph 31.1 mph N/A Snow Light Snow
12:35 PM 17.6 °F 0.9 °F 10.4 °F 73% 29.62 in 10.0 mi West 20.7 mph 29.9 mph N/A   Overcast
12:55 PM 15.8 °F -1.9 °F 10.4 °F 79% 29.62 in 10.0 mi West 21.9 mph 32.2 mph N/A   Overcast
1:15 PM 15.8 °F -0.2 °F 8.6 °F 73% 29.61 in 10.0 mi West 17.3 mph 33.4 mph N/A   Overcast
1:35 PM 15.8 °F -0.2 °F 8.6 °F 73% 29.62 in 10.0 mi WNW 17.3 mph 25.3 mph N/A   Overcast
1:55 PM 14.0 °F -4.7 °F 8.6 °F 79% 29.62 in 10.0 mi West 23.0 mph 29.9 mph N/A   Mostly Cloudy
2:15 PM 14.0 °F -4.7 °F 8.6 °F 79% 29.62 in 10.0 mi West 23.0 mph 32.2 mph N/A   Mostly Cloudy
2:35 PM 14.0 °F -3.9 °F 8.6 °F 79% 29.64 in 10.0 mi West 20.7 mph 28.8 mph N/A   Overcast
2:55 PM 12.2 °F -6.3 °F 6.8 °F 79% 29.64 in 10.0 mi West 20.7 mph 28.8 mph N/A   Overcast
3:15 PM 10.4 °F -9.5 °F 6.8 °F 85% 29.65 in 10.0 mi West 23.0 mph 34.5 mph N/A   Overcast
3:35 PM 8.6 °F -11.4 °F 5.0 °F 85% 29.64 in 7.0 mi WNW 21.9 mph 34.5 mph N/A   Overcast
3:55 PM 8.6 °F -10.5 °F 1.4 °F 73% 29.67 in 10.0 mi West 19.6 mph 35.7 mph N/A   Mostly Cloudy
4:15 PM 6.8 °F -14.3 °F 1.4 °F 79% 29.69 in 10.0 mi West 23.0 mph 33.4 mph N/A   Mostly Cloudy
4:35 PM 5.0 °F -17.1 °F -0.4 °F 78% 29.69 in 10.0 mi West 24.2 mph 33.4 mph N/A   Mostly Cloudy
4:55 PM 5.0 °F -14.2 °F -2.2 °F 72% 29.70 in 10.0 mi West 17.3 mph 29.9 mph N/A   Mostly Cloudy
5:15 PM 3.2 °F -17.6 °F -2.2 °F 78% 29.70 in 10.0 mi West 19.6 mph 27.6 mph N/A   Overcast
5:35 PM 1.4 °F -20.5 °F -5.8 °F 72% 29.70 in 10.0 mi WNW 20.7 mph 31.1 mph N/A   Overcast
5:55 PM -0.4 °F -24.7 °F -9.4 °F 66% 29.71 in 10.0 mi WNW 25.3 mph 38.0 mph N/A   Scattered Clouds
6:15 PM -0.4 °F -25.2 °F -11.2 °F 60% 29.72 in 10.0 mi West 26.5 mph 36.8 mph N/A   Scattered Clouds
6:35 PM -2.2 °F -28.4 °F -14.8 °F 55% 29.73 in 10.0 mi West 28.8 mph 41.4 mph N/A   Scattered Clouds
6:55 PM -2.2 °F -28.4 °F -14.8 °F 55% 29.73 in 10.0 mi West 28.8 mph 40.3 mph N/A   Clear
7:15 PM -4.0 °F -29.6 °F -14.8 °F 60% 29.74 in 10.0 mi West 25.3 mph 34.5 mph N/A   Clear
7:35 PM -5.8 °F -31.0 °F -14.8 °F 65% 29.74 in 10.0 mi West 23.0 mph 38.0 mph N/A   Clear
7:55 PM -5.8 °F -31.5 °F -14.8 °F 65% 29.74 in 10.0 mi WNW 24.2 mph 38.0 mph N/A   Clear
8:15 PM -5.8 °F -28.8 °F -16.6 °F 60% 29.76 in 10.0 mi West 18.4 mph 28.8 mph N/A   Clear
8:35 PM -7.6 °F -33.9 °F -16.6 °F 65% 29.75 in 10.0 mi West 24.2 mph 42.6 mph N/A   Clear
8:55 PM -7.6 °F -36.1 °F -14.8 °F 71% 29.76 in 10.0 mi West 29.9 mph 41.4 mph N/A   Clear
9:15 PM -7.6 °F -33.9 °F -14.8 °F 71% 29.77 in 10.0 mi West 24.2 mph 38.0 mph N/A   Clear
9:35 PM -7.6 °F -34.8 °F -14.8 °F 71% 29.78 in 10.0 mi West 26.5 mph 34.5 mph N/A   Mostly Cloudy
9:55 PM -9.4 °F -36.8 °F -16.6 °F 71% 29.79 in 10.0 mi West 25.3 mph 36.8 mph N/A   Scattered Clouds
10:15 PM -9.4 °F -37.3 °F -16.6 °F 71% 29.78 in 10.0 mi West 26.5 mph 35.7 mph N/A   Scattered Clouds
10:35 PM -9.4 °F -37.7 °F -16.6 °F 71% 29.78 in 10.0 mi WNW 27.6 mph 40.3 mph N/A   Scattered Clouds
10:55 PM -9.4 °F -37.3 °F -18.4 °F 65% 29.78 in 10.0 mi West 26.5 mph 42.6 mph N/A   Scattered Clouds
11:15 PM -11.2 °F -40.6 °F -18.4 °F 70% 29.77 in 10.0 mi West 28.8 mph 41.4 mph N/A   Clear
11:35 PM -11.2 °F -41.0 °F -18.4 °F 70% 29.77 in 10.0 mi WNW 29.9 mph 47.2 mph N/A   Scattered Clouds
11:55 PM -11.2 °F -39.7 °F -18.4 °F 70% 29.77 in 10.0 mi WNW 26.5 mph 46.0 mph N/A   Clear